Weather in Rusyatino

Russia / Tula Oblast     54°42′09″N   37°32′01″E
temp.,
°C
wind,
m/s
gust,
m/s
humid.,
%
clouds,
%
prec.,
mm/h
press.,
hPa
HPBL,
m
3 august, tue
tue300:00+17sw81691100 9.8 1006444
03:00+17sw410965 9.8 1006330
06:00+16wsw399635 0.0 1007354
09:00+19w4575100 0.0 1009762
12:00+22w555827 0.0 10101345
15:00+23w4647100 0.0 10092146
18:00+21wnw475711 0.0 10101222
21:00+16w227430 0.0 101224
4 august, wed
wed400:00+17wsw246092 0.0 101384
03:00+14w35783 0.0 101469
06:00+13w35835 0.0 1015136
09:00+18w346599 0.0 1016470
12:00+21wsw24504 0.0 10161309
15:00+21w2454100 0.0 1015237
18:00+20nne235878 0.0 1016233
21:00+15e01815 0.7 101712
5 august, thu
thu500:00+13sse11865 0.6 101711
03:00+13wnw00885 0.6 101810
06:00+13se1186100 0.0 101811
09:00+18ssw2271100 0.0 1018338
12:00+22s3452100 0.0 10171033
15:00+24ssw4641100 0.0 10151889
18:00+16ene2288100 0.8 101651
21:00+15e2396100 3.6 101667
6 august, fri
fri600:00+15ese3796100 4.1 1014236
03:00+15ese2695100 4.3 1013204
06:00+15ese2393100 0.0 1013133
09:00+17s3592100 1.1 1013333
12:00+16ese359758 6.9 1012201
15:00+19se4686100 7.2 1012380
18:00+20ene2273100 0.0 1011280
21:00+17ene51088100 0.1 1011264
7 august, sat
sat700:00+17ene51379100 0.0 1011322
03:00+15e51386100 0.0 1010320
06:00+15ese3791100 0.0 1011179
09:00+21sse247594 0.7 1011340
12:00+25sse466061 1.8 1011624
15:00+30se4639100 1.8 10101383
18:00+25wnw2250100 0.0 101012
21:00+21se2267100 0.2 101020